Location: Branche des Alpilles
(43.6087°N, 4.6976°E)
Time: 18:02:37
(UTC+00:00)

Daily predictions for brighter satellites

Satellite Brightness Start Highest point End
(mag) Time Altitude Azimuth Time Altitude Azimuth Time Altitude Azimuth
Cosmos 1933 4.1 16:30:29 10° SSE 16:34:08 34° E 16:37:50 10° NNE
Cosmos 1943 Rocket 2.8 16:31:17 10° N 16:36:19 34° NE 16:41:21 10° ESE
Cosmos 2154 Rocket 4.3 16:31:17 10° N 16:37:39 80° W 16:44:00 10° S
Cosmos 389 Rocket 2.3 16:34:16 10° S 16:37:40 76° E 16:41:05 10° NNE
USA 267 4.3 16:32:25 10° ENE 16:37:49 29° N 16:43:15 10° NW
Cosmos 1356 3.4 16:35:17 10° N 16:38:42 63° E 16:42:05 10° SSE
BREEZE-M DEB (TANK) 2.7 16:40:58 10° W 16:43:04 32° NNW 16:45:08 10° NE
H-2A R/B 3.3 16:39:30 10° S 16:43:19 66° W 16:47:11 10° NNW
NOAA 12 4.3 16:38:27 10° SE 16:43:36 52° ENE 16:48:45 10° N
Meteor 1-25 Rocket 4.5 16:42:02 10° N 16:47:30 48° ENE 16:53:00 10° SSE
X-37B 1.4 16:47:08 10° SW 16:50:07 40° SSE 16:52:59 11° E
YAOGAN 1 4.5 16:51:53 10° ENE 16:51:55 10° ENE 16:52:34 10° NE
Landsat 5 3.7 16:47:34 10° NNE 16:52:04 84° WNW 16:56:34 10° SSW
Lacrosse 5 rocket 1.4 16:48:34 10° WSW 16:52:12 57° NW 16:55:45 10° NE
Sich 1 3.2 16:50:03 10° N 16:54:26 82° W 16:58:45 10° S
Cosmos 2341 Rocket 4.0 16:49:28 10° N 16:55:48 78° E 17:02:09 10° SSE
Cosmos 1470 Rocket 4.3 16:52:36 10° NNE 16:56:27 30° ENE 17:00:15 10° SE
NOAA 6 4.4 16:52:40 10° S 16:57:48 72° WSW 17:02:57 10° NNW
SL-8 Rocket 4.0 16:51:46 10° N 16:57:58 62° E 17:04:11 10° SSE
Cosmos 1151 Rocket 3.1 16:54:44 10° S 16:58:53 52° E 17:03:02 10° NNE
ERS-2 3.2 16:57:42 10° NE 17:00:50 26° E 17:03:58 10° SSE
Cosmos 1515 Rocket 4.4 16:58:48 10° SSE 17:02:34 29° E 17:06:23 10° NNE
FengYun 1-2 T 4.3 16:58:22 10° SSE 17:03:45 56° ENE 17:09:08 10° N
CENTAUR R/B 4.1 17:03:34 10° ESE 17:05:29 12° E 17:06:27 11° E
Cosmos 2285 Rocket 4.0 17:00:22 10° NNW 17:06:47 74° ENE 17:13:07 10° SSE
ADEOS Rocket 4.2 16:59:56 10° N 17:07:33 61° WNW 17:15:04 10° SSW
BREEZE-M DEB (TANK) 1.7 17:05:21 10° WSW 17:08:04 64° NNW 17:09:12 21° NE
Cosmos 1606 3.7 17:04:28 10° SSW 17:08:14 49° W 17:12:02 10° N
Cosmos 2297 3.8 17:02:42 10° NNW 17:08:26 85° WSW 17:14:09 10° SSE
COSMO-SKYMED 1 3.5 17:05:06 10° NE 17:08:50 27° E 17:12:33 10° SSE
CSL-04 DEB 4.4 17:04:58 10° NNE 17:09:09 77° ESE 17:13:23 10° S
Cosmos 1867 4.5 17:04:17 10° WSW 17:09:29 46° NW 17:14:45 10° NNE
SL-16 R/B 2.4 17:05:58 10° SSW 17:11:36 74° WNW 17:17:18 10° NNE
Cosmos 44 3.8 17:06:28 10° NW 17:11:48 76° WSW 17:17:12 10° SSE
YAOGAN 6 3.8 17:11:35 10° S 17:15:05 45° W 17:18:34 10° NNW
ISS -2.0 17:14:37 10° NW 17:17:12 20° N 17:18:35 16° NNE
Envisat 4.2 17:13:31 10° S 17:18:23 46° W 17:23:16 10° NNW
Cosmos 2181 Rocket 4.0 17:13:09 10° S 17:19:34 87° E 17:25:57 10° N
SL-23 DEB 4.0 17:19:31 10° SW 17:23:01 79° SE 17:26:31 20° ENE
Cosmos 1328 Rocket 3.4 17:19:18 10° S 17:23:37 86° E 17:27:59 10° N
Cosmos 1500 4.2 17:20:41 10° NNE 17:23:53 25° ENE 17:27:05 10° SE
Cosmos 773 Rocket 4.1 17:21:18 10° SSW 17:26:33 80° WNW 17:31:53 10° NNE
Cosmos 1933 Rocket 3.9 17:22:24 10° N 17:26:41 43° ENE 17:30:56 10° SSE
Cosmos 1666 Rocket 4.3 17:23:22 10° NNW 17:27:43 56° W 17:32:03 10° S
Helios 1A Rocket 4.1 17:29:51 22° NE 17:29:51 22° NE 17:32:10 10° NNE
Cosmos 1656 Rocket 4.3 17:27:15 10° N 17:32:21 33° NE 17:35:32 19° ESE
Cosmos 2263 4.5 17:27:40 10° NNW 17:33:00 42° ENE 17:38:17 10° SE
NOSS 3-2 (A) 4.0 17:30:01 10° S 17:34:58 34° ESE 17:37:25 24° ENE
PSLV R/B 4.5 17:36:23 30° ENE 17:37:29 35° E 17:41:12 10° SSE
Cosmos 1939 Rocket 2.7 17:35:56 10° SSE 17:39:46 68° ENE 17:43:41 10° N
Okean-O 3.2 17:35:58 10° SE 17:39:58 35° ENE 17:44:00 10° N
CZ-4 R/B 2.4 17:41:04 27° NE 17:41:04 27° NE 17:43:36 10° N
Okean O Rocket 2.7 17:35:59 10° S 17:40:11 47° W 17:44:26 10° NNW
Meteor 2-6 Rocket 4.4 17:35:45 10° SSE 17:41:02 45° E 17:45:25 14° NNE
Cosmos 482 Debris 3.9 17:39:14 10° WNW 17:40:27 36° WNW 17:40:27 36° WNW
CZ-4B R/B 1.4 17:39:24 15° N 17:41:51 69° WNW 17:45:00 10° SSW
H-2A R/B 3.8 17:38:46 10° N 17:42:30 32° WNW 17:46:20 10° SW
SL-08 R/B 4.3 17:38:50 10° N 17:44:58 71° E 17:51:03 10° SSE
CZ-2C R/B 3.2 17:40:44 10° SE 17:45:26 42° ENE 17:49:59 10° N
Meteor 1-11 Rocket 4.4 17:41:39 10° N 17:46:46 31° ENE 17:48:34 26° ESE
USA 215 3.4 17:43:41 25° ENE 17:47:38 59° SE 17:54:03 10° SSW
Cosmos 1812 3.2 17:46:24 10° SSE 17:49:34 40° ESE 17:49:34 40° ESE
USA 238 DEB 4.0 17:47:18 10° S 17:53:25 44° ESE 17:55:53 32° ENE
USA 238 4.0 17:47:24 10° S 17:53:30 43° ESE 17:55:58 31° ENE
SAR-Lupe-4 3.4 17:54:21 42° NNE 17:55:29 80° ESE 17:59:03 10° S
SKYMED 2 3.5 17:53:27 15° NNE 17:57:05 90° NNE 18:01:26 10° SSW
Cosmos 923 Rocket 4.1 17:52:52 10° S 17:57:51 50° ESE 17:59:17 39° ENE
CSL-04 Rocket 4.4 18:01:09 31° NE 18:01:09 31° NE 18:04:41 10° N
Meteor 1-4 Rocket 3.9 17:57:52 10° SW 18:01:15 38° WNW 18:04:23 11° N
Cosmos 158 Rocket 3.9 17:57:24 10° S 18:02:14 52° ESE 18:03:00 47° ENE
Cosmos 546 4.4 18:01:30 10° WSW 18:05:20 89° SSE 18:05:32 80° ENE
CZ-2D R/B 3.2 18:01:38 10° SSE 18:05:26 86° WSW 18:09:17 10° NNW
MOS 1 Rocket 3.7 18:03:11 29° NNE 18:05:48 55° E 18:11:03 10° S
H-2A R/B 2.3 18:06:32 45° ENE 18:06:32 45° ENE 18:11:13 10° N
Cosmos 1603 3.6 18:01:24 10° SSW 18:07:02 85° ESE 18:09:58 30° NNE
Cosmos 1782 4.1 18:04:19 10° SSW 18:08:02 39° WNW 18:11:49 10° N
IRS-1C Rocket 4.2 18:04:45 10° S 18:10:01 78° WSW 18:15:20 10° NNW
Cosmos 1943 3.1 18:05:50 10° SSW 18:11:29 81° ESE 18:14:00 35° NNE
SAR-Lupe-1 4.4 18:11:43 50° NNW 18:12:27 65° WNW 18:16:00 10° SSW
Meteor 1-5 Rocket 4.2 18:07:46 10° N 18:13:43 81° E 18:19:26 10° SSE
Cosmos 2369 Rocket 2.4 18:09:29 10° NNW 18:15:09 69° WSW 18:20:44 10° SSE
USA 281 3.1 18:10:39 10° SE 18:17:09 72° ENE 18:23:42 10° NNW
USA 267 3.5 18:18:31 43° ENE 18:19:57 50° NNE 18:26:13 10° NW
Cosmos 1943 Rocket 3.6 18:14:58 10° NW 18:20:04 38° WSW 18:25:11 10° S
Cosmos 2239 Rocket 4.3 18:14:25 10° N 18:20:37 77° E 18:26:49 10° SSE
FALCON 9 R/B 3.4 18:20:15 10° SW 18:20:39 12° SSW 18:20:39 12° SSW
Cosmos 1238 Rocket 3.9 18:24:01 41° SSE 18:24:01 41° SSE 18:27:19 10° S
ARGOS 4.5 18:27:20 25° N 18:27:20 25° N 18:29:41 10° N
Cosmos 1680 Rocket 3.4 18:19:52 10° S 18:25:01 67° ESE 18:25:01 67° ESE
X-37B 2.5 18:23:30 10° W 18:25:15 29° W 18:25:15 29° W
Meteor 1-27 Rocket 4.3 18:21:28 10° S 18:25:04 38° SSE 18:25:04 38° SSE
NOSS 3-3 (A) 4.5 18:19:21 10° NNW 18:26:51 66° NE 18:29:52 41° ESE
NOSS 3-3 (C) 4.5 18:19:28 10° NNW 18:26:57 66° NE 18:29:53 42° ESE
YAOGAN 1 3.6 18:29:03 36° NNW 18:29:03 36° NNW 18:31:40 10° NNW
Meteor 1-10 Rocket 4.1 18:24:40 10° S 18:30:20 87° W 18:33:01 33° N
Lacrosse 5 rocket 3.6 18:29:54 10° NW 18:31:27 14° NNW 18:31:27 14° NNW
Cosmos 44 Rocket 3.7 18:38:05 10° NNW 18:42:15 58° NNW 18:42:15 58° NNW
Cosmos 1934 Rocket 3.8 18:38:21 10° N 18:44:46 82° E 18:51:04 10° S
COSMO-SKYMED 1 4.4 18:42:02 14° NNW 18:44:57 28° WNW 18:48:40 10° SW
Cosmos 2112 Rocket 4.3 18:40:03 10° SSW 18:44:13 57° S 18:44:13 57° S
Cosmos 2228 Rocket 4.2 18:43:31 10° SSW 18:47:50 43° WNW 18:48:48 38° NW
CENTAUR R/B 2.5 18:48:48 10° SSW 18:53:42 65° S 18:53:42 65° S
NOSS 3-2 (C) 3.7 18:53:38 10° SSW 18:57:45 52° SSW 18:57:45 52° SSW
CZ-4 R/B 4.2 19:17:05 15° NW 19:17:05 15° NW 19:18:08 10° NW
NOSS 3-2 (A) 4.3 19:20:03 10° WSW 19:24:51 44° WNW 19:24:51 44° WNW
USA 215 3.8 19:31:02 50° NW 19:31:02 50° NW 19:36:50 10° WSW
H-2A R/B 4.2 19:47:09 22° WNW 19:47:09 22° WNW 19:50:04 10° NW
